Tracking 18673 objects as of 26-June-2017
HD Live streaming from Space Station
objects crossing your sky now

BEIDOU 1B

Track BEIDOU 1B now!
BEIDOU 1B is classified as:


NORAD ID: 26643
Int'l Code: 2000-082A
Perigee: 35,733.8 km
Apogee: 36,428.2 km
Inclination: 8.0 °
Period: 1,450.8 minutes
Semi major axis: 42451 km
RCS: 0.1238 m2 (medium)
Launch date: December 20, 2000
Source: People's Republic of China (PRC)
Launch site: Xichang Space Center, China (XSC)

Space-bsaed navigation and positioning system to improve accuracy of weapons and situational awareness of military forces.
Your satellite tracking list
Your tracking list is empty





NASA's NSSDC Master Catalog

Two Line Element Set (TLE):
1 26643U 00082A   17175.96476691 -.00000326 +00000-0 +00000-0 0  9992
2 26643 007.9831 048.3403 0081783 008.0466 352.0172 00.99255822019534
Source of the keplerian elements: AFSPC